TimeMST,TemperatureF,Dew PointF,Humidity,Sea Level PressureIn,VisibilityMPH,Wind Direction,Wind SpeedMPH,Gust SpeedMPH,PrecipitationIn,Events,Conditions,WindDirDegrees,DateUTC
12:53 AM,21.0,19.0,92,29.65,4.0,WNW,4.6,-,0.00,Snow,Light Snow,300,2013-12-21 07:53:00
1:53 AM,21.0,19.0,92,29.64,2.5,Calm,Calm,-,0.00,Snow,Light Snow,0,2013-12-21 08:53:00
2:02 AM,21.2,17.6,86,29.50,4.0,North,3.5,-,0.00,Snow,Light Snow,360,2013-12-21 09:02:00
2:53 AM,21.0,18.0,88,29.66,6.0,NW,4.6,-,0.00,Snow,Light Snow,310,2013-12-21 09:53:00
3:53 AM,21.0,17.1,85,29.68,5.0,NW,6.9,-,0.00,Snow,Light Snow,320,2013-12-21 10:53:00
4:53 AM,21.0,18.0,88,29.70,3.0,NW,4.6,-,0.00,Snow,Light Snow,320,2013-12-21 11:53:00
5:00 AM,21.2,17.6,86,29.57,2.0,NW,4.6,-,0.00,Snow,Light Snow,310,2013-12-21 12:00:00
5:19 AM,19.4,17.6,93,29.57,4.0,NNW,3.5,-,0.00,Snow,Light Snow,340,2013-12-21 12:19:00
5:39 AM,19.4,17.6,93,29.58,2.0,NNW,3.5,-,0.00,Snow,Light Snow,340,2013-12-21 12:39:00
5:53 AM,19.9,17.1,89,29.73,4.0,North,4.6,-,0.00,Snow,Light Snow,10,2013-12-21 12:53:00
6:53 AM,19.9,17.1,89,29.77,10.0,NW,9.2,-,0.00,,Overcast,310,2013-12-21 13:53:00
7:53 AM,19.9,17.1,89,29.81,10.0,North,5.8,-,N/A,,Overcast,10,2013-12-21 14:53:00
8:19 AM,19.4,17.6,93,29.68,10.0,North,4.6,-,N/A,,Overcast,360,2013-12-21 15:19:00
8:42 AM,19.4,17.6,93,29.69,8.0,North,4.6,-,0.00,Snow,Light Snow,360,2013-12-21 15:42:00
8:53 AM,19.9,18.0,92,29.85,9.0,North,5.8,-,0.00,Snow,Light Snow,10,2013-12-21 15:53:00
9:53 AM,21.0,18.0,88,29.89,9.0,NNE,4.6,-,0.00,Snow,Light Snow,20,2013-12-21 16:53:00
10:24 AM,21.2,19.4,93,29.76,7.0,Calm,Calm,-,0.00,Snow,Light Snow,0,2013-12-21 17:24:00
10:53 AM,23.0,19.0,85,29.91,6.0,Calm,Calm,-,0.00,Snow,Light Snow,0,2013-12-21 17:53:00
11:42 AM,24.8,19.4,80,29.77,4.0,Calm,Calm,-,0.00,Snow,Light Snow,0,2013-12-21 18:42:00
11:47 AM,24.8,19.4,80,29.77,3.0,Calm,Calm,-,0.00,Snow,Light Snow,0,2013-12-21 18:47:00
11:53 AM,24.1,19.9,84,29.91,4.0,Calm,Calm,-,0.00,Snow,Light Snow,0,2013-12-21 18:53:00
12:14 PM,24.8,19.4,80,29.77,10.0,Calm,Calm,-,0.00,,Overcast,0,2013-12-21 19:14:00
12:53 PM,27.0,19.9,75,29.91,10.0,North,3.5,-,0.00,,Overcast,10,2013-12-21 19:53:00
1:21 PM,26.6,19.4,74,29.78,10.0,NNE,4.6,-,N/A,,Overcast,20,2013-12-21 20:21:00
1:38 PM,26.6,17.6,69,29.79,10.0,NW,4.6,-,N/A,,Overcast,310,2013-12-21 20:38:00
1:53 PM,27.0,18.0,69,29.92,10.0,North,6.9,-,N/A,,Overcast,350,2013-12-21 20:53:00
2:53 PM,28.0,16.0,61,29.93,10.0,WNW,12.7,-,0.00,,Overcast,300,2013-12-21 21:53:00
3:53 PM,27.0,15.1,61,29.96,10.0,NNW,9.2,-,N/A,,Scattered Clouds,330,2013-12-21 22:53:00
4:53 PM,26.1,15.1,63,29.98,10.0,WNW,6.9,-,N/A,,Overcast,300,2013-12-21 23:53:00
5:53 PM,23.0,15.1,72,30.01,10.0,NNW,4.6,-,N/A,,Scattered Clouds,330,2013-12-22 00:53:00
6:53 PM,24.1,15.1,69,30.04,10.0,NW,6.9,-,N/A,,Overcast,320,2013-12-22 01:53:00
7:53 PM,21.0,15.1,78,30.06,10.0,Calm,Calm,-,N/A,,Overcast,0,2013-12-22 02:53:00
8:53 PM,19.0,14.0,81,30.07,10.0,Calm,Calm,-,N/A,,Overcast,0,2013-12-22 03:53:00
9:53 PM,21.0,15.1,78,30.06,10.0,Calm,Calm,-,N/A,,Overcast,0,2013-12-22 04:53:00
10:53 PM,19.9,15.1,81,30.06,10.0,Calm,Calm,-,N/A,,Overcast,0,2013-12-22 05:53:00
11:53 PM,19.9,15.1,81,30.06,10.0,Calm,Calm,-,N/A,,Overcast,0,2013-12-22 06:53:00